DW0664 Weather Reports


Display with metric or nautical units.
time (UTC)temp
F
wind
direction
speed
MPH
gust
MPH
rain 1hr
in
rain 24hr
in
rain mn
in
humidity
%
barometer
mb
20260507122608 59 61 0.0 3.0 0.00 0.00 0.00 88 1019.0
20260507122104 59 46 0.0 2.0 0.00 0.00 0.00 88 1019.0
20260507121600 59 38 0.0 2.0 0.00 0.00 0.00 88 1018.8
20260507121056 59 50 2.0 2.0 0.00 0.00 0.00 87 1018.8
20260507120552 59 49 1.0 3.0 0.00 0.00 0.00 87 1018.9
20260507120049 59 78 0.0 1.0 0.00 0.00 0.00 87 1018.8
20260507115545 59 76 2.0 6.0 0.00 0.00 0.00 87 1018.8
20260507115041 59 56 0.0 1.0 0.00 0.00 0.00 88 1019.0
20260507114537 60 69 1.0 1.0 0.00 0.00 0.00 88 1018.5
20260507114035 60 104 1.0 2.0 0.00 0.00 0.00 88 1018.2
20260507113532 60 24 1.0 1.0 0.00 0.00 0.00 88 1017.9
20260507113029 60 47 0.0 2.0 0.00 0.00 0.00 88 1017.6
20260507112527 60 45 1.0 1.0 0.00 0.00 0.00 88 1017.6
20260507112023 60 63 0.0 2.0 0.00 0.00 0.00 89 1017.9
20260507111520 60 53 2.0 2.0 0.00 0.00 0.00 89 1018.2
20260507111017 60 66 1.0 2.0 0.00 0.00 0.00 89 1017.6
20260507110513 60 35 1.0 3.0 0.00 0.00 0.00 89 1017.5
20260507110010 61 62 1.0 2.0 0.00 0.00 0.00 89 1017.5
20260507105507 61 56 0.0 2.0 0.00 0.00 0.00 89 1017.9
20260507105003 61 52 1.0 3.0 0.00 0.00 0.00 89 1017.9
20260507104501 61 62 0.0 1.0 0.00 0.00 0.00 88 1017.6
20260507103956 61 31 0.0 1.0 0.00 0.00 0.00 89 1017.7
20260507103453 61 71 0.0 2.0 0.00 0.00 0.00 89 1017.6
20260507102949 61 25 1.0 2.0 0.00 0.00 0.00 89 1017.7
20260507102446 61 56 0.0 3.0 0.00 0.00 0.00 88 1017.2
20260507101942 61 59 0.0 1.0 0.00 0.00 0.00 88 1017.6
20260507101437 61 33 1.0 1.0 0.00 0.00 0.00 89 1017.9
20260507100934 61 64 0.0 1.0 0.00 0.00 0.00 89 1017.4
20260507100432 61 56 0.0 1.0 0.00 0.00 0.00 90 1017.6
20260507095930 61 43 1.0 1.0 0.00 0.00 0.00 90 1017.2
20260507095427 61 64 0.0 2.0 0.00 0.00 0.00 90 1017.2
20260507094924 61 60 1.0 3.0 0.00 0.00 0.00 91 1016.8
20260507094420 61 65 0.0 1.0 0.00 0.00 0.00 91 1016.5
20260507093917 61 62 0.0 1.0 0.00 0.00 0.00 91 1017.0
20260507093415 61 61 0.0 1.0 0.00 0.00 0.00 91 1016.9
20260507092913 61 55 0.0 0.0 0.00 0.00 0.00 91 1016.8
20260507092409 61 58 0.0 1.0 0.00 0.00 0.00 91 1016.6
20260507091906 61 63 0.0 1.0 0.00 0.00 0.00 91 1016.4
20260507091402 61 63 0.0 1.0 0.00 0.00 0.00 91 1016.2
20260507090858 61 52 1.0 4.0 0.00 0.00 0.00 91 1016.3
20260507090354 61 48 0.0 1.0 0.00 0.00 0.00 91 1015.8
20260507085852 61 61 1.0 2.0 0.00 0.00 0.00 91 1015.9
20260507085348 61 63 0.0 0.0 0.00 0.00 0.00 91 1015.9
20260507084846 61 64 0.0 3.0 0.00 0.00 0.00 91 1015.8
20260507084342 61 67 0.0 1.0 0.00 0.00 0.00 91 1015.6
20260507083839 61 63 0.0 0.0 0.00 0.00 0.00 90 1015.7
20260507083336 61 63 0.0 1.0 0.00 0.00 0.00 90 1015.5
20260507082832 61 42 2.0 3.0 0.00 0.00 0.00 90 1015.8
20260507082327 61 40 1.0 2.0 0.00 0.00 0.00 90 1016.4
20260507081825 61 62 0.0 3.0 0.00 0.00 0.00 90 1016.6
20260507081321 61 54 0.0 0.0 0.00 0.00 0.00 90 1017.3
20260507080818 61 61 0.0 1.0 0.00 0.00 0.00 90 1016.9
20260507080314 61 35 1.0 2.0 0.00 0.00 0.00 90 1016.6
20260507075809 61 51 1.0 2.0 0.00 0.00 0.00 90 1016.4
20260507075307 61 61 0.0 1.0 0.00 0.00 0.00 90 1016.0
20260507074802 61 54 1.0 2.0 0.00 0.00 0.00 89 1016.7
20260507074300 62 355 0.0 1.0 0.00 0.00 0.00 89 1015.5
20260507073757 61 64 0.0 1.0 0.00 0.00 0.00 89 1016.1
20260507073253 61 57 0.0 8.0 0.00 0.00 0.00 89 1015.7
20260507072751 61 51 0.0 1.0 0.00 0.00 0.00 89 1016.5
20260507072248 61 63 0.0 2.0 0.00 0.00 0.00 89 1016.4
20260507071746 62 32 0.0 2.0 0.00 0.00 0.00 89 1016.4
20260507071242 62 54 2.0 2.0 0.00 0.00 0.00 88 1016.3
20260507070739 62 74 1.0 1.0 0.00 0.00 0.00 88 1016.8
20260507070236 62 67 0.0 1.0 0.00 0.00 0.00 88 1016.7
20260507065732 62 84 1.0 1.0 0.00 0.00 0.00 88 1016.9
20260507065229 62 41 1.0 2.0 0.00 0.00 0.00 88 1016.3
20260507064727 62 62 1.0 3.0 0.00 0.00 0.00 87 1016.3
20260507064226 62 68 0.0 3.0 0.00 0.00 0.00 87 1017.0
20260507063722 62 66 0.0 0.0 0.00 0.00 0.00 87 1016.8
20260507063219 62 27 2.0 3.0 0.00 0.00 0.00 87 1016.7
20260507062716 62 72 0.0 4.0 0.00 0.00 0.00 87 1016.7
20260507062214 62 60 0.0 3.0 0.00 0.00 0.00 87 1017.0
20260507061711 62 60 1.0 1.0 0.00 0.00 0.00 87 1017.0
20260507061209 62 24 0.0 2.0 0.00 0.00 0.00 87 1017.4
20260507060707 62 61 0.0 1.0 0.00 0.00 0.00 87 1016.8
20260507060203 62 5 2.0 4.0 0.00 0.00 0.00 87 1017.1
20260507055659 62 55 0.0 2.0 0.00 0.00 0.00 87 1016.3
20260507055155 62 55 1.0 2.0 0.00 0.00 0.00 87 1016.2
20260507054651 62 62 0.0 3.0 0.00 0.00 0.00 87 1016.4
20260507054148 62 60 1.0 4.0 0.00 0.00 0.00 86 1016.7
20260507053646 62 85 1.0 3.0 0.00 0.00 0.00 86 1016.7
20260507053144 62 60 0.0 1.0 0.00 0.00 0.00 87 1016.8
20260507052642 62 60 1.0 2.0 0.00 0.00 0.00 87 1017.1
20260507052138 62 58 0.0 4.0 0.00 0.00 0.00 86 1016.9
20260507051636 62 49 1.0 3.0 0.00 0.00 0.00 86 1017.0
20260507051132 62 60 0.0 2.0 0.00 0.00 0.00 86 1016.6
20260507050629 62 69 1.0 2.0 0.00 0.00 0.00 86 1016.6
20260507050126 62 24 1.0 2.0 0.00 0.00 0.00 86 1016.8
20260507045623 62 52 1.0 2.0 0.00 0.00 0.00 86 1016.7
20260507045120 62 57 0.0 1.0 0.00 0.00 0.00 86 1016.7
20260507044616 62 44 0.0 2.0 0.00 0.00 0.00 86 1017.0
20260507044113 62 14 1.0 2.0 0.00 0.00 0.00 86 1016.6
20260507043609 62 60 0.0 1.0 0.00 0.00 0.00 86 1016.8
20260507043107 62 46 0.0 3.0 0.00 0.00 0.00 86 1016.8
20260507042602 62 53 1.0 3.0 0.00 0.00 0.00 86 1016.7
20260507042058 62 53 1.0 1.0 0.00 0.00 0.00 86 1016.9
20260507041555 62 12 1.0 3.0 0.00 0.00 0.00 85 1016.7
20260507041052 62 30 1.0 2.0 0.00 0.00 0.00 85 1016.3
20260507040548 62 78 1.0 2.0 0.00 0.00 0.00 85 1016.9
20260507040045 62 58 1.0 1.0 0.00 0.00 0.00 85 1016.7
20260507035541 62 46 1.0 1.0 0.00 0.00 0.00 85 1016.5
20260507035037 62 34 1.0 2.0 0.00 0.00 0.00 85 1016.6
20260507034534 62 43 0.0 1.0 0.00 0.00 0.00 85 1016.4
20260507034032 62 45 0.0 2.0 0.00 0.00 0.00 85 1016.6
20260507033530 62 63 0.0 3.0 0.00 0.00 0.00 84 1016.3
20260507033027 63 60 0.0 2.0 0.00 0.00 0.00 84 1016.4
20260507032524 63 33 0.0 2.0 0.00 0.00 0.00 84 1016.3
20260507032020 63 57 1.0 2.0 0.00 0.00 0.00 84 1016.3
20260507031516 63 45 1.0 2.0 0.00 0.00 0.00 84 1016.1
20260507031014 63 68 1.0 1.0 0.00 0.00 0.00 84 1016.4
20260507030510 63 69 0.0 1.0 0.00 0.00 0.00 84 1016.1
20260507030008 63 52 1.0 1.0 0.00 0.00 0.00 84 1016.1
20260507025505 63 50 0.0 2.0 0.00 0.00 0.00 84 1016.2
20260507025002 63 54 1.0 3.0 0.00 0.00 0.00 84 1016.1
20260507024500 63 44 1.0 2.0 0.00 0.00 0.00 84 1015.7
20260507023956 63 37 1.0 2.0 0.00 0.00 0.00 84 1015.4
20260507023452 63 53 1.0 2.0 0.00 0.00 0.00 84 1015.7
20260507022949 63 58 1.0 1.0 0.00 0.00 0.00 84 1015.5
20260507022447 63 22 0.0 2.0 0.00 0.00 0.00 84 1015.4
20260507021942 63 35 1.0 1.0 0.00 0.00 0.00 84 1015.5
20260507021437 63 62 1.0 1.0 0.00 0.00 0.00 84 1015.6
20260507020935 63 42 2.0 2.0 0.00 0.00 0.00 83 1015.2
20260507020432 63 60 1.0 2.0 0.00 0.00 0.00 84 1015.0
20260507015929 63 58 1.0 3.0 0.00 0.00 0.00 84 1014.9
20260507015427 64 37 1.0 1.0 0.00 0.00 0.00 84 1014.8
20260507014924 64 42 1.0 1.0 0.00 0.00 0.00 84 1014.9
20260507014420 64 63 0.0 1.0 0.00 0.00 0.00 83 1014.7
20260507013917 64 54 0.0 3.0 0.00 0.00 0.00 83 1014.7
20260507013414 64 53 0.0 1.0 0.00 0.00 0.00 83 1014.5
20260507012912 64 62 0.0 2.0 0.00 0.00 0.00 83 1014.5
20260507012408 64 39 0.0 2.0 0.00 0.00 0.00 83 1014.1
20260507011904 64 44 0.0 2.0 0.00 0.00 0.00 83 1014.3
20260507011401 64 76 1.0 2.0 0.00 0.00 0.00 83 1014.5
20260507010901 64 24 1.0 2.0 0.00 0.00 0.00 83 1013.8
20260507010357 64 64 0.0 1.0 0.00 0.00 0.00 83 1013.7
20260507005855 64 50 1.0 2.0 0.00 0.00 0.00 83 1013.8
20260507005351 64 56 1.0 1.0 0.00 0.00 0.00 82 1013.8
20260507004848 65 58 1.0 1.0 0.00 0.00 0.00 82 1013.9
20260507004345 65 50 0.0 1.0 0.00 0.00 0.00 82 1013.7
20260507003842 65 57 0.0 2.0 0.00 0.00 0.00 81 1013.8
20260507003337 66 41 0.0 1.0 0.00 0.00 0.00 81 1013.5
20260507002832 66 53 1.0 2.0 0.00 0.00 0.00 81 1013.8
20260507002329 66 39 0.0 2.0 0.00 0.00 0.00 80 1013.6
20260507001827 66 59 1.0 1.0 0.00 0.00 0.00 80 1013.6
20260507001323 66 45 0.0 2.0 0.00 0.00 0.00 80 1013.4
20260507000820 67 54 2.0 2.0 0.00 0.00 0.00 79 1013.3
20260507000315 67 21 1.0 2.0 0.00 0.00 0.00 79 1013.5
20260506235812 67 46 0.0 1.0 0.00 0.00 0.00 79 1013.4
20260506235308 68 44 0.0 1.0 0.00 0.00 0.00 78 1013.1
20260506234805 68 17 1.0 2.0 0.00 0.00 0.00 78 1013.0
20260506234302 68 44 1.0 2.0 0.00 0.00 0.00 78 1013.0
20260506233800 69 53 1.0 1.0 0.00 0.00 0.00 78 1013.0
20260506233250 69 54 1.0 2.0 0.00 0.00 0.00 77 1012.8
20260506232747 69 46 1.0 2.0 0.00 0.00 0.00 76 1013.0
20260506232241 70 54 1.0 2.0 0.00 0.00 0.00 76 1012.9
20260506231739 70 65 1.0 2.0 0.00 0.00 0.00 76 1012.9
20260506231237 70 75 1.0 2.0 0.00 0.00 0.00 75 1012.8
20260506230734 71 45 1.0 2.0 0.00 0.00 0.00 76 1012.7
20260506230231 71 45 1.0 2.0 0.00 0.00 0.00 75 1012.9
20260506225727 71 62 1.0 2.0 0.00 0.00 0.00 75 1012.8
20260506225224 71 6 2.0 3.0 0.00 0.00 0.00 75 1012.9
20260506224721 72 45 1.0 1.0 0.00 0.00 0.00 75 1012.9
20260506224218 71 33 1.0 3.0 0.00 0.00 0.00 75 1012.8
20260506223714 71 51 0.0 2.0 0.00 0.00 0.00 76 1012.9
20260506223210 71 60 1.0 2.0 0.00 0.00 0.00 75 1012.8
20260506222707 72 21 1.0 2.0 0.00 0.00 0.00 75 1012.7
20260506222202 73 34 2.0 2.0 0.00 0.00 0.00 74 1012.6
20260506221701 73 37 1.0 3.0 0.00 0.00 0.00 74 1012.6
20260506221158 72 350 1.0 2.0 0.00 0.00 0.00 75 1012.5
20260506220655 72 50 1.0 3.0 0.00 0.00 0.00 76 1012.5
20260506220150 72 54 0.0 2.0 0.00 0.00 0.00 76 1012.5
20260506215647 72 2 4.0 7.0 0.00 0.00 0.00 75 1012.7
20260506215142 72 50 1.0 1.0 0.00 0.00 0.00 76 1012.5
20260506214639 72 21 1.0 2.0 0.00 0.00 0.00 76 1012.3
20260506214137 72 22 2.0 3.0 0.00 0.00 0.00 76 1012.3
20260506213635 72 40 1.0 1.0 0.00 0.00 0.00 77 1012.3
20260506213132 72 50 1.0 3.0 0.00 0.00 0.00 77 1012.4
20260506212629 72 42 1.0 6.0 0.00 0.00 0.00 77 1012.4
20260506212124 73 14 1.0 2.0 0.00 0.00 0.00 78 1012.4
20260506211620 72 40 1.0 3.0 0.00 0.00 0.00 78 1012.5
20260506211117 72 28 1.0 2.0 0.00 0.00 0.00 79 1012.5
20260506210614 72 58 1.0 3.0 0.00 0.00 0.00 78 1012.3
20260506210110 73 18 2.0 2.0 0.00 0.00 0.00 77 1012.3
20260506205607 75 336 3.0 3.0 0.00 0.00 0.00 78 1012.3
20260506205102 75 64 0.0 2.0 0.00 0.00 0.00 79 1012.3
20260506204600 75 47 0.0 2.0 0.00 0.00 0.00 79 1012.3
20260506204057 76 32 2.0 3.0 0.00 0.00 0.00 77 1012.2
20260506203555 78 11 1.0 2.0 0.00 0.00 0.00 79 1012.2
20260506203051 78 57 0.0 0.0 0.00 0.00 0.00 78 1012.2
20260506202549 78 45 0.0 3.0 0.00 0.00 0.00 78 1012.1
20260506202045 78 50 1.0 2.0 0.00 0.00 0.00 77 1012.1
20260506201543 79 62 1.0 1.0 0.00 0.00 0.00 77 1011.9
20260506201039 78 59 0.0 1.0 0.00 0.00 0.00 78 1012.0
20260506200535 78 56 0.0 3.0 0.00 0.00 0.00 77 1012.2
20260506200033 79 45 1.0 1.0 0.00 0.00 0.00 75 1012.4
20260506195529 80 45 1.0 1.0 0.00 0.00 0.00 72 1012.2
20260506195026 80 61 0.0 1.0 0.00 0.00 0.00 73 1012.5
20260506194524 80 76 0.0 1.0 0.00 0.00 0.00 72 1012.2
20260506194020 79 41 0.0 1.0 0.00 0.00 0.00 73 1012.3
20260506193517 79 61 0.0 2.0 0.00 0.00 0.00 73 1012.1
20260506193014 77 56 0.0 1.0 0.00 0.00 0.00 76 1012.0
20260506192511 76 84 1.0 2.0 0.00 0.00 0.00 75 1012.2
20260506192007 77 81 0.0 2.0 0.00 0.00 0.00 74 1012.1
20260506191504 77 60 1.0 1.0 0.00 0.00 0.00 74 1012.2
20260506191000 76 91 1.0 1.0 0.00 0.00 0.00 74 1012.3
20260506190457 77 58 0.0 1.0 0.00 0.00 0.00 76 1012.3
20260506185953 76 82 1.0 3.0 0.00 0.00 0.00 76 1012.3
20260506185451 75 64 0.0 2.0 0.00 0.00 0.00 75 1012.5
20260506184948 75 88 1.0 2.0 0.00 0.00 0.00 76 1012.3
20260506184445 74 64 0.0 1.0 0.00 0.00 0.00 77 1012.2
20260506183942 75 140 1.0 2.0 0.00 0.00 0.00 74 1012.5
20260506183437 74 62 0.0 0.0 0.00 0.00 0.00 77 1012.4
20260506182935 73 60 0.0 1.0 0.00 0.00 0.00 78 1012.6
20260506182432 71 57 0.0 1.0 0.00 0.00 0.00 79 1012.6
20260506181929 72 61 0.0 1.0 0.00 0.00 0.00 78 1013.0
20260506181427 72 48 0.0 2.0 0.00 0.00 0.00 78 1012.9
20260506180923 71 59 1.0 3.0 0.00 0.00 0.00 79 1012.8
20260506180420 72 60 1.0 3.0 0.00 0.00 0.00 78 1013.1
20260506175917 72 70 1.0 2.0 0.00 0.00 0.00 78 1013.1
20260506175414 71 50 1.0 2.0 0.00 0.00 0.00 79 1013.2
20260506174910 71 54 0.0 2.0 0.00 0.00 0.00 81 1013.1
20260506174408 69 46 0.0 6.0 0.00 0.00 0.00 82 1013.0
20260506173905 69 55 2.0 6.0 0.00 0.00 0.00 82 1013.3
20260506173402 69 63 0.0 4.0 0.00 0.00 0.00 84 1013.6
20260506172859 68 51 1.0 2.0 0.00 0.00 0.00 86 1013.9
20260506172355 66 69 1.0 6.0 0.00 0.00 0.00 89 1014.0
20260506171853 66 84 1.0 2.0 0.00 0.00 0.00 90 1014.0
20260506171350 66 342 1.0 2.0 0.00 0.00 0.00 90 1014.1
20260506170848 67 35 1.0 3.0 0.00 0.00 0.00 90 1014.4
20260506170344 67 63 1.0 3.0 0.00 0.00 0.00 89 1014.6
20260506165843 68 59 0.0 2.0 0.00 0.00 0.00 87 1014.5
20260506165340 68 44 1.0 2.0 0.00 0.00 0.00 86 1014.6
20260506164836 70 103 2.0 3.0 0.00 0.00 0.00 85 1014.7
20260506164333 71 7 2.0 2.0 0.00 0.00 0.00 85 1014.5
20260506163831 71 11 1.0 4.0 0.00 0.00 0.00 85 1014.5
20260506163325 74 58 4.0 8.0 0.00 0.00 0.00 82 1014.4
20260506162821 79 20 4.0 4.0 0.00 0.00 0.00 85 1014.0
20260506162320 79 39 0.0 1.0 0.00 0.00 0.00 86 1013.9
20260506161817 79 58 0.0 0.0 0.00 0.00 0.00 86 1013.7
20260506161314 79 60 0.0 1.0 0.00 0.00 0.00 85 1013.6
20260506160812 80 135 0.0 1.0 0.00 0.00 0.00 85 1013.7
20260506160308 80 73 0.0 0.0 0.00 0.00 0.00 85 1013.3
20260506155807 80 69 0.0 0.0 0.00 0.00 0.00 85 1013.1
20260506155306 80 67 0.0 0.0 0.00 0.00 0.00 85 1012.9
20260506153415 80 265 0.0 2.0 0.00 0.00 0.00 84 1012.7
20260506152913 80 98 1.0 1.0 0.00 0.00 0.00 84 1012.5
20260506152410 80 70 0.0 2.0 0.00 0.00 0.00 84 1012.3
20260506151908 80 70 0.0 1.0 0.00 0.00 0.00 84 1012.7
20260506151405 80 76 0.0 1.0 0.00 0.00 0.00 84 1012.6
20260506150902 80 67 0.0 1.0 0.00 0.00 0.00 85 1012.7
20260506150358 80 67 0.0 0.0 0.00 0.00 0.00 85 1012.4
20260506145855 79 57 0.0 3.0 0.00 0.00 0.00 86 1012.5
20260506145351 79 73 1.0 1.0 0.00 0.00 0.00 86 1012.4
20260506144849 79 77 0.0 1.0 0.00 0.00 0.00 87 1012.4
20260506144345 78 71 0.0 1.0 0.00 0.00 0.00 87 1012.6
20260506143844 78 75 0.0 1.0 0.00 0.00 0.00 88 1012.5
20260506143341 78 81 0.0 1.0 0.00 0.00 0.00 88 1012.7
20260506142839 78 70 0.0 1.0 0.00 0.00 0.00 88 1012.6
20260506142337 78 68 0.0 0.0 0.00 0.00 0.00 89 1012.4
20260506141835 78 69 0.0 0.0 0.00 0.00 0.00 89 1012.3
20260506141332 77 73 0.0 1.0 0.00 0.00 0.00 89 1012.0
20260506140830 77 76 1.0 2.0 0.00 0.00 0.00 89 1012.1
20260506140327 77 94 0.0 2.0 0.00 0.00 0.00 90 1011.8
20260506135824 77 82 1.0 2.0 0.00 0.00 0.00 90 1011.8
20260506135320 77 82 2.0 3.0 0.00 0.00 0.00 90 1011.9
20260506134817 77 77 0.0 1.0 0.00 0.00 0.00 91 1011.9
20260506134313 76 81 0.0 0.0 0.00 0.00 0.00 91 1011.9
20260506133810 76 67 0.0 2.0 0.00 0.00 0.00 91 1011.9
20260506133307 76 82 1.0 4.0 0.00 0.00 0.00 92 1011.8
20260506132804 76 76 0.0 1.0 0.00 0.00 0.00 92 1011.8
20260506132301 76 65 0.0 1.0 0.00 0.00 0.00 93 1011.6
20260506131759 76 70 0.0 1.0 0.00 0.00 0.00 93 1011.7
20260506131255 76 98 0.0 1.0 0.00 0.00 0.00 93 1011.8
20260506130752 76 76 0.0 0.0 0.00 0.00 0.00 93 1011.6
20260506130249 76 85 0.0 1.0 0.00 0.00 0.00 93 1011.9
20260506125747 76 70 0.0 1.0 0.00 0.00 0.00 93 1011.8
20260506125244 76 115 1.0 2.0 0.00 0.00 0.00 93 1011.7
20260506124743 76 71 0.0 0.0 0.00 0.00 0.00 93 1011.6
20260506124240 75 70 0.0 0.0 0.00 0.00 0.00 93 1011.6
20260506123737 75 71 0.0 1.0 0.00 0.00 0.00 93 1011.5
20260506123236 75 84 0.0 1.0 0.00 0.00 0.00 93 1011.6
20260506122732 75 67 0.0 1.0 0.00 0.00 0.00 94 1011.5